www.pogodaiklimat.ru
ПОГОДА в Малых Дербетах
Время
(UTC), дата
21 29.07
00 30.07
03 30.07
06 30.07
09 30.07
12 30.07
15 30.07
18 30.07
21 30.07
00 31.07
03 31.07
06 31.07
09 31.07
12 31.07
15 31.07
18 31.07
21 31.07
00 1.08
03 1.08
06 1.08
09 1.08
12 1.08
15 1.08
18 1.08
21 1.08
00 2.08
03 2.08
06 2.08
09 2.08
12 2.08
15 2.08
18 2.08
21 2.08
00 3.08
03 3.08
06 3.08
09 3.08
12 3.08
15 3.08
18 3.08
21 3.08
00 4.08
03 4.08
06 4.08
09 4.08
12 4.08
15 4.08
18 4.08
21 4.08
00 5.08
03 5.08
06 5.08
09 5.08
12 5.08
15 5.08
18 5.08
Ветер
(напр.,м/с)
Видим. Явления Облачность Т
(С)
Тd
(С)
f
(%)
Тe
(С)
Тes
(С)
Комфортность P
(гПа)
Po
(гПа)
Тmin
(С)
Tmax
(С)
R
(мм)
R24
(мм)
S
(см)
штиль 0 20 км ясно +20.8 +5.1 36 +21 +21 комфорт 1016.3 1015.2
штиль 0 20 км 3/0
[Ac lent]
+17.2 +5.4 46 +17 +17 1016.4 1015.3
ЮЗ 1 20 км 6/0
[Ac und]
+20.7 +5.4 37 +23 +23 комфорт 1016.9 1015.8 +17.0
З 2 20 км 6/0
[Ac cast Ci fib]
+33.1 +2.6 15 +30 +37 жарко 1016.9 1015.9
штиль 0 20 км 3/3 1000 м
[Cu med, cong]
+36.7 +2.3 12 +33 +49 жарко 1016.3 1015.3
СЗ 1 20 км 5/3 1000 м
[Cu med, cong Ci fib]
+34.9 +1.8 12 +32 +39 жарко 1014.8 1013.8
штиль 0 20 км 4/3 600 м
[Cu med, cong Ci fib]
+35.6 +1.1 11 +32 +33 жарко 1013.5 1012.5 +37.7
штиль 0 20 км 8/0
[Ac und]
+27.4 +4.0 22 +26 +26 жарко 1014.1 1013.0
З 1 20 км 10/0
[Ac und]
+25.6 +2.8 23 +24 +24 комфорт 1013.5 1012.5
штиль 0 20 км 10/0
[Ac lent]
+24.3 +3.2 25 +24 +24 комфорт 1012.5 1011.5
ЮЗ 1 20 км 10/0
[Ac und]
+24.6 +3.1 25 +24 +24 комфорт 1012.2 1011.2 +22.0
ЮЗ 3 20 км 10/0
[Ci sp]
+34.5 +3.0 14 +32 +38 жарко 1011.4 1010.4
ЮЗ 5 20 км пыльный позёмок 10/3 1000 м
[Cu med, cong Ci fib]
+37.3 +1.7 11 +34 +39 очень
жарко
1009.9 1008.9
ЮЗ 3
{11}
20 км 10/4 1000 м
[Cu med, cong Ci fib]
+38.6 +1.9 10 +35 +39 очень
жарко
1008.0 1007.0
З 1 20 км 9/0
[Ac As]
+34.4 +2.9 14 +31 +32 жарко 1006.7 1005.7 +38.8
С 3 20 км 9/0
[Ac As]
+28.7 +11.9 35 +30 +30 жарко 1007.3 1006.3
Ю 1 20 км 8/0
[Ci sp]
+26.9 +5.8 26 +26 +26 жарко 1006.9 1005.9
ЮВ 2 20 км 9/0
[Ac As]
+24.1 +10.7 43 +25 +25 комфорт 1004.8 1003.7
ЮВ 3 20 км 9/0
[Ac As]
+22.9 +15.1 61 +27 +27 душно 1003.2 1002.2 +22.4
ЮВ 2 20 км 8/0
[Ac trans Ci sp]
+28.9 +13.8 40 +31 +37 жарко 1001.8 1000.8
З 4 20 км 10/1 600 м
[Cu med, cong Ac As Ci sp]
+30.1 +11.7 32 +31 +36 жарко 1001.0 1000.0
ЮЗ 4
{13}
4000 м слаб. ливневой дождь 9/4 600 м
[Cb cap Ac As]
+21.6 +18.3 82 +26 +28 душно 1002.5 1001.5
З 3 20 км {ливн. дождь} 9/1 600 м
[Cu med, cong Ac As]
+20.5 +14.8 70 +24 +24 комфорт 1003.3 1002.3 +31.7 2
штиль 0 20 км {ливн. дождь} 10/0
[Cs]
+19.1 +15.8 81 +20 +20 1005.5 1004.4
штиль 0 20 км 8/0
[Cs]
+16.5 +14.8 90 +16 +16 1006.0 1004.9
штиль 0 20 км ясно +14.7 +13.1 90 +14 +14 1006.1 1005.1
штиль 0 20 км ясно +16.2 +14.2 88 +16 +17 1007.0 1006.0 +14.3
З 1 20 км 3/3 600 м
[Cu med, cong]
+23.7 +13.4 52 +26 +34 жарко 1007.8 1006.8
ЮЗ 1 20 км 4/4 600 м
[Cu med, cong]
+25.8 +10.0 37 +27 +38 жарко 1008.1 1007.0
СЗ 3 20 км 8/3 600 м
[Cu med, cong Ac cast]
+26.8 +8.8 32 +27 +30 жарко 1007.9 1006.8
СЗ 2 20 км 9/0
[Ac As]
+23.8 +8.8 38 +24 +25 комфорт 1008.6 1007.6 +29.7
штиль 0 20 км 10/0
[Ac trans Ci sp]
+20.5 +10.5 53 +22 +22 комфорт 1009.6 1008.6
штиль 0 20 км 4/0
[Ac cast Ci sp]
+17.8 +10.9 64 +18 +18 1010.4 1009.3
З 1 20 км 3/0
[Ci fib]
+16.1 +10.6 70 +17 +17 1011.0 1009.9
штиль 0 20 км 1/0
[Ac lent]
+16.8 +10.6 67 +17 +18 1011.9 1010.8 +14.9
СЗ 2 20 км 3/0
[Ci sp]
+25.5 +9.2 36 +26 +35 жарко 1012.2 1011.2
С 3 20 км 4/4 600 м
[Cu med, cong]
+27.8 +7.8 28 +27 +35 жарко 1012.3 1011.3
З 3 20 км 3/3 600 м
[Cu med, cong]
+29.2 +4.8 21 +28 +33 жарко 1011.6 1010.6
СЗ 3 20 км гроза без осадков 6/6 600 м
[Cb cap]
+26.8 +7.8 30 +27 +27 жарко 1012.3 1011.3 +29.5
З 1 20 км {гроза, ливн. дождь} 1/1 600 м
[Cu med, cong]
+21.1 +9.2 46 +22 +22 комфорт 1013.8 1012.7
СЗ 2 20 км ясно +19.2 +8.0 48 +20 +20 1014.6 1013.5
СЗ 2 20 км ясно +17.5 +9.1 58 +18 +18 1014.9 1013.8
СЗ 3 20 км ясно +18.5 +9.7 57 +19 +20 1015.7 1014.6 +16.4 0.0
СЗ 4 20 км ясно +24.9 +8.3 35 +25 +32 комфорт 1015.4 1014.4
СЗ 4 20 км 3/3 600 м
[Cu med, cong]
+27.3 +5.8 25 +26 +34 жарко 1014.3 1013.3
С 5 20 км пыльный позёмок 1/1 600 м
[Cu hum]
+28.4 +5.1 23 +27 +32 жарко 1012.8 1011.8
СЗ 5-10
{11}
20 км пыльный позёмок ясно +27.5 +3.8 22 +26 +27 жарко 1011.9 1010.9 +28.8
З 2
{10}
20 км ясно +22.2 +4.1 31 +22 +22 комфорт 1012.4 1011.4
штиль 0 20 км 3/0
[Ac cast]
+17.4 +11.2 67 +17 +17 1012.6 1011.5
З 3 20 км 9/0
[Ac As]
+19.1 +11.5 61 +20 +20 1011.3 1010.2
СЗ 3 20 км 9/0
[Ac As]
+19.6 +12.8 65 +21 +22 комфорт 1010.7 1009.6 +16.5
СЗ 5 20 км пыльный позёмок 10/0
[Ac cast Ci fib]
+23.9 +13.7 53 +26 +29 жарко 1010.1 1009.0
С 5 20 км пыльный позёмок 10/1 600 м
[Cu hum Ci fib]
+28.7 +13.0 38 +30 +36 жарко 1009.2 1008.2
С 6-11
{14}
20 км пыльный позёмок 8/3 600 м
[Cu med, cong Ci fib]
+30.4 +12.2 33 +31 +34 жарко 1009.0 1007.9
С 5-10
{12}
20 км пыльный позёмок 1/1 600 м
[Cu med, cong]
+30.7 +11.0 30 +31 +31 жарко 1009.2 1008.2 +31.3
СВ 2 20 км ясно +25.4 +10.2 38 +26 +26 жарко 1011.6 1010.5
Местоположение метеостанции Малые Дербеты (Калмыкия, Россия): широта 47.93 долгота 44.70 высота над уровнем моря 9 м.
В архиве по умолчанию представлена погода в Малых Дербетах за последнюю неделю. Архивные данные за месяц целиком и за предыдущие месяцы, начиная с января 2011 года, Вы можете получить, выбрав интересующий диапазон дат из раскрывающегося списка и нажав кнопку "Найти!".
*Определитесь, кто Вы:
Внимание! Время в таблицах - всемирное. Для получения местного времени необходимо прибавить поправку, которая равна 3 ч.
Смотрите также архив погоды в соседних городах и на ближайших метеорологических станциях:
Партнеры нашего сайта:      
Пояснения к столбцам:
  • Ветер - указаны скорость ветра в м/с - средняя за 10 мин, порывы в срок и между сроками (в фигурных скобках) и направление, откуда дует ветер: С - северный,
  • СВ - северо-восточный, В - восточный, ЮВ - юго-восточный, Ю - южный, ЮЗ - юго-западный, З - западный, СЗ - северо-западный.
  • Видимость - горизонтальная дальность видимости в метрах или километрах. При видимости от 1 до 10 км при отсутствии осадков обычно наблюдается дымка, при ухудшении видимости до 1 км и менее - туман. В сухую погоду видимость может ухудшаться дымом, пылью или мглою.
  • Явления - указаны атмосферные явления, наблюдавшиеся в срок или в последний час перед сроком; фигурными скобками обозначены явления, наблюдавшиеся между сроками (за 1-3 часа до срока); квадратными скобками обозначены град или гололедные отложения с указанием их диаметра в мм.
  • Облачность - указаны через наклонную черту общая и нижняя облачность в баллах и высота нижней границы облаков в метрах; квадратными скобками обозначены формы облаков: Ci - перистые, Cs - перисто-слоистые, Cc - перисто-кучевые, Ac - высококучевые, As - высокослоистые, Sc - слоисто-кучевые, Ns - слоисто-дождевые, Cu - кучевые, Cb - кучево-дождевые. Подробнее классификацию облаков см. в Атласе облаков (PDF).
  • T - Температура воздуха - температура, измеренная на высоте 2 м над землей.
  • Td - Температура точки росы - температура, при понижении до которой содержащийся в воздухе водяной пар достигнет насыщения.
  • f - Относительная влажность воздуха - влажноcть воздуха, измеренная на высоте 2 м над землей.
  • Te - Эффективная температура - температура, которую ощущает одетый по сезону человек в тени. Характеристика душности погоды. При расчете учитывается влияние влажности воздуха и скорости ветра на теплоощущения человека.
  • Tes - Эффективная температура на солнце - температура, которую ощущает человек, с поправкой на солнечный нагрев. Характеристика знойности погоды. Зависит от высоты солнца над горизонтом, облачности и скорости ветра. Ночью, в пасмурную погоду, а также при ветре 12 м/с и более поправка равна нулю.
  • P - Атмосферное давление - приведенное к уровню моря атмосферное давление.
  • Po - Атмосферное давление - измеренное на уровне метеостанции атмосферное давление.
  • Tmin - Минимальная температура - минимум температуры воздуха на высоте 2 м над землей.
  • Tmax - Максимальная температура - максимум температуры воздуха на высоте 2 м над землей.
  • R - Количество осадков - Количество выпавших осадков за период времени, мм. При наведении курсора мыши на число - период времени, за который выпало указанное количество осадков.
  • R24 - Количество осадков - Количество выпавших осадков за 24 часа, мм.
  • S - Снежный покров - Высота снежного покрова, см. При наведении курсора мыши на число - состояние снежного покрова и степень покрытия местности в баллах.